This is the latest recevied weather packets stored in our database for station/object K3PPP. If no packets are shown the sender has not sent any weather packets the latest 10 day(s).
| Time | Temp. | Humidity | Pressure | Rain* | Wind** | Luminosity | Snow |
|---|---|---|---|---|---|---|---|
| 1777465335 | 12.22° C | 99% | 1011.4 hPa | 0 mm | - | 37 W/m² | - |
| 1777465033 | 12.22° C | 99% | 1011.3 hPa | 0 mm | - | 32 W/m² | - |
| 1777464728 | 12.22° C | 99% | 1011.3 hPa | 0 mm | - | 30 W/m² | - |
| 1777464425 | 12.22° C | 99% | 1011.5 hPa | 0 mm | - | 28 W/m² | - |
| 1777464121 | 12.22° C | 99% | 1011.9 hPa | 0 mm | - | 27 W/m² | - |
| 1777463821 | 12.22° C | 99% | 1011.7 hPa | 0 mm | - | 29 W/m² | - |
| 1777463516 | 12.22° C | 99% | 1011.9 hPa | 0 mm | - | 37 W/m² | - |
| 1777463211 | 12.22° C | 99% | 1011.8 hPa | 0 mm | - | 33 W/m² | - |
| 1777462907 | 12.22° C | 99% | 1012.1 hPa | 0 mm | - | 29 W/m² | - |
| 1777462604 | 12.22° C | 99% | 1012.2 hPa | 0 mm | - | 29 W/m² | - |
| 1777462300 | 12.22° C | 99% | 1012.2 hPa | 0 mm | - | 27 W/m² | - |
| 1777461995 | 12.22° C | 99% | 1012.3 hPa | 0 mm | - | 27 W/m² | - |
| 1777461693 | 12.22° C | 99% | 1012.5 hPa | 0 mm | - | 22 W/m² | - |
| 1777461393 | 12.22° C | 99% | 1012.3 hPa | 0 mm | - | 17 W/m² | - |
| 1777461089 | 12.22° C | 99% | 1012.6 hPa | 0 mm | - | 12 W/m² | - |
| 1777460785 | 12.22° C | 99% | 1012.3 hPa | 0 mm | - | 8 W/m² | - |
| 1777460481 | 12.22° C | 99% | 1012.5 hPa | 0 mm | - | 6 W/m² | - |
| 1777460176 | 12.22° C | 99% | 1012.4 hPa | 0 mm | - | 6 W/m² | - |
| 1777459874 | 12.22° C | 99% | 1012.7 hPa | 0 mm | - | 8 W/m² | - |
| 1777459571 | 12.22° C | 99% | 1012.5 hPa | 0 mm | - | 5 W/m² | - |
| 1777459268 | 12.22° C | 99% | 1012.6 hPa | 0 mm | - | 1 W/m² | - |
| 1777458966 | 11.67° C | 99% | 1012.8 hPa | 0 mm | - | 1 W/m² | - |
| 1777458663 | 12.22° C | 99% | 1012.5 hPa | 0 mm | - | 1 W/m² | - |
| 1777458359 | 12.22° C | 99% | 1012.5 hPa | 0 mm | - | 1 W/m² | - |
| 1777458055 | 11.67° C | 99% | 1012.6 hPa | 0 mm | - | 0 W/m² | - |
* Rain latest hour (hover to see other rain measurements)
** Current wind speed in m/s (hover to see current wind gust speed)